Iridium Next SV128

operational
NORAD ID: 42811 Int'l Des: 2017-039 Owner: IRIDS Country: US Constellation: Iridium NEXT
LEOCIRCULARPOLAR

About Iridium Next SV128

Description loading...

Live Position

Loading 3D Globe...

Upcoming Passes

Altitude History

Altitude vs Time

uPlot chart will show altitude changes over time

Two-Line Element Set

1 42811U 17039J 26061.11447512 .00000050 00000-0 10940-4 0 9999
2 42811 86.3905 69.9159 0002041 95.0746 265.0682 14.34217680454633
Epoch: Mar 2, 2026 • Age: 27 hours

Current Status

Altitude 802.8 km
Velocity 7.45 km/s
Sub-Earth Point -61.87°S, 45.6°E
Launch Date Jun 25, 2017
Age 8.6 years
Type communications

Technical Details

Classification Payload
Mass 860.00 kg
Dry Mass 700.00 kg
Total Mass 860.00 kg
Length 3.10 m
Diameter 1.50 m
Span 9.40 m
Shape Half Hex Prism+2 pan
Manufacturer OATKGA
Bus Type EliteBus
Phase Status In Orbit
Owner/State IRIDS/US

Large Constellations

Loading constellations...